TimeEST,TemperatureF,Dew PointF,Humidity,Sea Level PressureIn,VisibilityMPH,Wind Direction,Wind SpeedMPH,Gust SpeedMPH,PrecipitationIn,Events,Conditions,WindDirDegrees,DateUTC
12:53 AM,19.9,15.1,81,30.14,10.0,North,3.5,-,N/A,,Overcast,360,2013-01-07 05:53:00
1:44 AM,19.4,15.8,86,30.17,10.0,Calm,Calm,-,N/A,,Overcast,0,2013-01-07 06:44:00
1:53 AM,19.9,16.0,85,30.19,10.0,Calm,Calm,-,N/A,,Overcast,0,2013-01-07 06:53:00
2:05 AM,21.2,15.8,80,30.18,10.0,NNW,3.5,-,N/A,,Overcast,340,2013-01-07 07:05:00
2:28 AM,19.4,15.8,86,30.19,10.0,NW,6.9,-,N/A,,Overcast,320,2013-01-07 07:28:00
2:53 AM,19.9,14.0,78,30.22,10.0,NNW,8.1,-,N/A,,Overcast,340,2013-01-07 07:53:00
3:02 AM,19.4,12.2,74,30.21,10.0,NNW,5.8,-,N/A,,Overcast,330,2013-01-07 08:02:00
3:53 AM,18.0,10.0,71,30.27,10.0,NW,9.2,-,N/A,,Overcast,320,2013-01-07 08:53:00
4:53 AM,15.1,8.1,74,30.28,10.0,NNW,6.9,-,N/A,,Overcast,330,2013-01-07 09:53:00
5:53 AM,12.9,7.0,77,30.32,10.0,NW,8.1,-,N/A,,Overcast,320,2013-01-07 10:53:00
6:53 AM,10.9,5.0,77,30.38,10.0,WNW,8.1,-,N/A,,Overcast,300,2013-01-07 11:53:00
7:53 AM,7.0,3.0,84,30.40,10.0,WNW,3.5,-,N/A,,Mostly Cloudy,290,2013-01-07 12:53:00
8:53 AM,6.1,3.0,87,30.43,10.0,WSW,4.6,-,N/A,,Mostly Cloudy,240,2013-01-07 13:53:00
9:53 AM,6.1,3.0,87,30.45,10.0,SSW,5.8,-,N/A,,Partly Cloudy,210,2013-01-07 14:53:00
10:53 AM,10.0,3.9,76,30.45,10.0,WSW,5.8,-,N/A,,Mostly Cloudy,240,2013-01-07 15:53:00
11:15 AM,10.4,3.2,73,30.42,10.0,West,5.8,-,N/A,,Mostly Cloudy,260,2013-01-07 16:15:00
11:42 AM,10.4,6.8,85,30.41,10.0,West,3.5,-,N/A,,Overcast,260,2013-01-07 16:42:00
11:53 AM,12.0,6.1,77,30.43,9.0,West,4.6,-,N/A,,Overcast,260,2013-01-07 16:53:00
12:53 PM,14.0,8.1,77,30.41,10.0,SW,6.9,-,N/A,,Overcast,230,2013-01-07 17:53:00
1:53 PM,15.8,8.6,73,30.38,10.0,West,3.5,-,N/A,,Overcast,260,2013-01-07 18:53:00
2:53 PM,18.0,12.0,78,30.38,10.0,SSW,5.8,-,N/A,,Overcast,210,2013-01-07 19:53:00
3:04 PM,17.6,12.2,79,30.35,10.0,SW,5.8,-,N/A,,Overcast,230,2013-01-07 20:04:00
3:48 PM,19.4,12.2,74,30.35,10.0,SW,6.9,-,N/A,,Overcast,220,2013-01-07 20:48:00
3:53 PM,19.0,12.9,77,30.38,10.0,SW,5.8,-,N/A,,Overcast,220,2013-01-07 20:53:00
4:53 PM,21.0,16.0,81,30.37,10.0,SSW,9.2,-,N/A,,Overcast,200,2013-01-07 21:53:00
5:53 PM,23.0,17.6,80,30.30,10.0,South,8.1,-,N/A,,Overcast,180,2013-01-07 22:53:00
6:53 PM,23.0,18.0,81,30.30,10.0,South,8.1,-,N/A,,Overcast,180,2013-01-07 23:53:00
7:53 PM,25.0,19.0,78,30.27,10.0,South,15.0,23.0,N/A,,Overcast,190,2013-01-08 00:53:00
8:53 PM,26.1,19.9,78,30.24,10.0,South,10.4,-,N/A,,Overcast,190,2013-01-08 01:53:00
9:53 PM,25.0,19.0,78,30.22,10.0,SSW,9.2,-,N/A,,Scattered Clouds,200,2013-01-08 02:53:00
10:53 PM,26.1,19.0,75,30.18,10.0,SSW,13.8,-,N/A,,Clear,200,2013-01-08 03:53:00
11:53 PM,26.1,19.0,75,30.16,10.0,SSW,12.7,-,N/A,,Clear,210,2013-01-08 04:53:00